Tracking 35274 objects as of 11-Sep-2026
HD Live streaming from Space Station
objects crossing your sky now

COSMOS 1141

Track COSMOS 1141 now!
10-day predictions
COSMOS 1141 is classified as:


NORAD ID: 11585
Int'l Code: 1979-090A
Launch date: October 16, 1979
Source: Commonwealth of Independent States (former USSR) (CIS)
Launch site: PLESETSK MISSILE AND SPACE COMPLEX (PKMTR)
Your satellite tracking list
Your tracking list is empty




NASA's NSSDC Master Catalog

Two Line Element Set (TLE):
1 11585U 79090A   26253.75420850  .00000066  00000-0  51383-4 0  9990
2 11585  82.9486 127.4592 0027897 255.8564 170.2311 13.77203024337420
Source of the keplerian elements: AFSPC